Find Starlink 32841

NORAD ID: 62865 Int'l Des: 2025-022 Owner: SPXS Country: US Constellation: starlink operational
LEOCIRCULAR

リアルタイム位置

3D地球を読み込み中...

Starlink 32841について

説明を読み込み中...

次回通過

Passes for default location (London). Set your location on the main map for personalized predictions.

高度履歴

Loading altitude history...

軌道要素

1 62865U 25022M 26124.03520498 .00024584 00000-0 83948-3 0 9992
2 62865 53.1605 232.5496 0001022 99.1134 260.9982 15.30197620 70368
Epoch: May 4, 2026 • Age: 14 hours

現在のステータス

高度 492.0 km
速度 7.62 km/s
衛星直下点 -47.36°S, 93.41°E
打ち上げ日 Feb 2, 2025
運用期間 1.2 years
タイプ internet

技術仕様

分類 Payload
質量 730.00 kg
乾燥質量 700.00 kg
総質量 730.00 kg
長さ 0.30 m
直径 4.10 m
スパン 29.00 m
形状 Box + pan
製造者 SPXS
バスタイプ Starlink V2M
フェーズステータス In Orbit
所有者/国 SPXS/US

Most Searched